Weather History for Lee's Summit, MO

Change the Weather History Date:

Saturday, April 12, 2014

  Actual Average (KMKC) Record (KMKC)
Temperature  
Mean Temperature 70 °F -  
Max Temperature 82 °F 63 °F 84 °F (2014)
Min Temperature 59 °F 44 °F 32 °F (1997)
Cooling Degree Days 6    
Growing Degree Days 20 (Base 50)    
Moisture  
Dew Point 54 °F    
Average Humidity 56    
Maximum Humidity 81    
Minimum Humidity 44    
Precipitation  
Precipitation 0.00 in - - ()
Sea Level Pressure  
Sea Level Pressure 29.71 in    
Wind  
Wind Speed 13 mph (South)    
Max Wind Speed 24 mph    
Max Gust Speed 33 mph    
Visibility 10 miles    
Events Thunderstorm    
Averages and records for this station are not official NWS values.
T = Trace of Precipitation, MM = Missing Value Source: NWS Daily Summary

Daily Weather History Graph

Daily Weather History Graph

Search for Another Location

Airport:

Trip Planner

Search our weather history database for the weather conditions in past years. The results will help you decide how hot, cold, wet, or windy it might be!

Date:

Astronomy

Apr. 12, 2014 Rise Set
Actual Time 6:45 AM CDT 7:51 PM CDT
Civil Twilight 6:17 AM CDT 8:19 PM CDT
Nautical Twilight 5:45 AM CDT 8:52 PM CDT
Astronomical Twilight 5:11 AM CDT 9:26 PM CDT
Moon 5:32 PM CDT (4/12) 5:11 AM CDT (4/12)
Length of Visible Light 14h 01m
Length of Day
13h 06m
Waxing Gibbous, 93% of the Moon is Illuminated
Apr 12
Waxing Gibbous
Apr 15
Full
Apr 22
Last Quarter
Apr 29
New
May 6
First Quarter

Hourly Weather History & Observations

Time (CDT) Temp. Heat Index Dew Point Humidity Pressure Visibility Wind Dir Wind Speed Gust Speed Precip Events Conditions
12:53 AM 61.0 °F - 39.0 °F 44% 29.88 in 10.0 mi SE 8.1 mph - N/A   Clear
1:53 AM 62.1 °F - 41.0 °F 46% 29.87 in 10.0 mi South 11.5 mph - N/A   Clear
2:53 AM 61.0 °F - 46.9 °F 60% 29.85 in 10.0 mi SSW 11.5 mph - N/A   Clear
3:53 AM 59.0 °F - 51.1 °F 75% 29.84 in 10.0 mi SSW 8.1 mph - N/A   Clear
4:53 AM 60.1 °F - 53.1 °F 78% 29.82 in 10.0 mi South 10.4 mph - N/A   Clear
5:53 AM 59.0 °F - 53.1 °F 81% 29.81 in 10.0 mi South 9.2 mph - N/A   Clear
6:53 AM 59.0 °F - 53.1 °F 81% 29.81 in 9.0 mi South 9.2 mph - N/A   Clear
7:53 AM 61.0 °F - 54.0 °F 78% 29.80 in 10.0 mi South 13.8 mph 23.0 mph N/A   Clear
8:53 AM 64.0 °F - 55.0 °F 73% 29.78 in 10.0 mi South 15.0 mph - N/A   Clear
9:53 AM 70.0 °F - 57.0 °F 63% 29.77 in 10.0 mi SSW 16.1 mph 31.1 mph N/A   Clear
10:53 AM 72.0 °F - 57.9 °F 61% 29.76 in 10.0 mi South 19.6 mph 29.9 mph N/A   Clear
11:53 AM 75.0 °F - 59.0 °F 57% 29.74 in 10.0 mi South 19.6 mph 25.3 mph N/A   Clear
12:53 PM 77.0 °F - 59.0 °F 54% 29.70 in 10.0 mi South 19.6 mph 28.8 mph N/A   Clear
1:53 PM 79.0 °F - 59.0 °F 50% 29.66 in 10.0 mi SSW 18.4 mph 29.9 mph N/A   Clear
2:53 PM 81.0 °F 81.3 °F 59.0 °F 47% 29.62 in 10.0 mi South 19.6 mph 28.8 mph N/A   Clear
3:53 PM 82.0 °F 82.0 °F 57.9 °F 44% 29.59 in 10.0 mi South 21.9 mph 32.2 mph N/A   Clear
4:53 PM 81.0 °F 81.1 °F 57.9 °F 45% 29.57 in 10.0 mi South 24.2 mph 33.4 mph N/A   Clear
5:53 PM 79.0 °F - 57.9 °F 48% 29.57 in 10.0 mi South 17.3 mph 24.2 mph N/A   Clear
6:53 PM 79.0 °F - 57.9 °F 48% 29.57 in 10.0 mi South 13.8 mph - N/A   Clear
7:53 PM 77.0 °F - 55.9 °F 48% 29.57 in 10.0 mi South 9.2 mph - N/A   Clear
8:53 PM 75.9 °F - 55.0 °F 48% 29.56 in 10.0 mi South 18.4 mph 32.2 mph N/A   Clear
9:53 PM 75.0 °F - 53.1 °F 46% 29.59 in 10.0 mi SSW 19.6 mph 27.6 mph N/A   Clear
10:14 PM 75.0 °F - 53.1 °F 46% 29.63 in 10.0 mi South 16.1 mph 27.6 mph N/A Thunderstorm Clear
10:29 PM 75.0 °F - 53.1 °F 46% 29.64 in 10.0 mi SSW 17.3 mph 26.5 mph N/A   Clear
10:53 PM 73.9 °F - 53.1 °F 48% 29.66 in 10.0 mi WSW 13.8 mph 21.9 mph N/A   Scattered Clouds
11:53 PM 73.0 °F - 54.0 °F 51% 29.68 in 10.0 mi SW 15.0 mph - N/A   Mostly Cloudy